Location: McFarlands Corners
(41.4117°N, 81.3382°W)
Time: 13:45:41
(UTC+00:00)

Tiros 1 despin weight - Pass Details

Date: 22 February 2026
Orbit: 556 x 593 km, 48.2° (Epoch: 11 March)

Event Time Altitude Azimuth Distance (km) Brightness Sun altitude
Rises 17:01:56 0° 194° (SSW) 2,754 ? 37.9°
Reaches altitude 10° 17:04:55 10° 172° (S) 1,854 ? 38.0°
Maximum altitude 17:07:30 16° 134° (SE) 1,508 ? 38.1°
Drops below altitude 10° 17:10:05 10° 96° (E) 1,848 ? 38.2°
Sets 17:13:02 0° 75° (ENE) 2,741 ? 38.2°
